Regional Weather Roundup
Issued by NWS

Home | Current Version | Previous Version | Text Only | Print | Product List | Glossary Off
Versions: 1 2 3 4 5 6 7 8 9 10 11 12 13 14 15 16 17 18 19 20 21 22 23 24 25 26 27 28 29 30 31 32 33 34 35 36 37 38 39 40 41 42 43 44 45 46 47 48 49 50

465
ASUS45 KPSR 220200
RWRAZ

ARIZONA HOURLY REGIONAL WEATHER ROUNDUP
NATIONAL WEATHER SERVICE PHOENIX AZ
700 PM MST THU MAY 21 2015

NOTE: FAIR INDICATES FEW OR NO CLOUDS BELOW 12,000 FEET WITH NO
SIGNIFICANT WEATHER AND/OR OBSTRUCTIONS TO VISIBILITY.

AZZ001>003-036-220300-
NORTHWEST ARIZONA

CITY           SKY/WX    TMP DP  RH WIND       PRES   REMARKS
KINGMAN        PTCLDY    72  23  16 SW20      29.82R
$$

AZZ004>008-015-016-018-220300-
NORTH CENTRAL ARIZONA

CITY           SKY/WX    TMP DP  RH WIND       PRES   REMARKS
GRAND CANYON   MOCLDY    54  29  38 W6        29.97S
WILLIAMS       PTCLDY    55  23  28 SW14      30.05R
PRESCOTT       PTCLDY    63  26  24 SW14      29.93R
FLAGSTAFF      NOT AVBL
PAYSON         CLEAR     64  27  24 VRB6G16   29.95S
$$

AZZ009>014-017-220300-
NORTHEAST ARIZONA

CITY           SKY/WX    TMP DP  RH WIND       PRES   REMARKS
WINSLOW        NOT AVBL
SAINT JOHNS    MOCLDY    66  23  19 S13G18    29.92S
WINDOW ROCK    CLOUDY    56  34  43 N12       29.98F
$$

AZZ023-220300-
GREATER PHOENIX AREA

CITY           SKY/WX    TMP DP  RH WIND       PRES   REMARKS
PHOENIX        PTCLDY    84  23  10 W18       29.74R
GLENDALE       CLEAR     82  32  16 S17       29.77R
LUKE AFB       CLEAR     81  32  16 SW14      29.75R
DEER VALLEY    CLEAR     80  26  13 W16       29.76R
SCOTTSDALE     CLEAR     81  25  12 W14G23    29.78R
MESA-FALCON    CLEAR    N/A N/A N/A S12       29.76R
MESA-GATEWAY   CLEAR     81  25  12 SW15G25   29.79R
CHANDLER       CLEAR     82  19   9 S21G32    29.76R
$$

AZZ027-028-220300-
SOUTHWEST MARICOPA COUNTY AND PINAL COUNTY

CITY           SKY/WX    TMP DP  RH WIND       PRES   REMARKS
CASA GRANDE    CLEAR     81  19  10 SW14      29.78R
GILA BEND      CLEAR     80  36  20 SW15      29.76R
$$

AZZ503-504-507>509-220300-
SOUTHEAST ARIZONA

CITY           SKY/WX    TMP DP  RH WIND       PRES   REMARKS
TUCSON         CLEAR     80  25  13 W14G22    29.86R
DAVIS-MONTHAN  CLEAR     79  27  14 SW16G23   29.84R
RYAN FIELD       N/A     81  28  15 SW16G24   29.85R
NOGALES        CLEAR     72  19  13 S16       29.93R
SIERRA VISTA   CLEAR     70  19  14 SW17G24   29.98R
SAFFORD        CLEAR     80  18  10 W17G23    29.80R
$$

AZZ020-021-025-026-031-220300-
SOUTHWEST ARIZONA

CITY           SKY/WX    TMP DP  RH WIND       PRES   REMARKS
YUMA           PTCLDY    78  39  24 W14       29.77R
$$

CAZ031-033-041-043-047-048-061-220300-
SOUTHERN CALIFORNIA

CITY           SKY/WX    TMP DP  RH WIND       PRES   REMARKS
DOWNTOWN L.A.  PTCLDY    63  47  55 VRB3      29.94R
L.A. AIRPORT   PTCLDY    61  52  72 W13       29.95R
SAN DIEGO      MOCLDY    64  50  60 W12       30.00R
BURBANK        MOCLDY    62  45  53 S8        29.93R
ONTARIO        PTCLDY    64  46  52 SW13      29.92R
RIVERSIDE      MOCLDY    65  48  54 W14       29.91R
PALM SPRINGS   CLEAR     76  38  25 NW22G28   29.75S
EL CENTRO NAS  PTCLDY    71  40  32 W32G39    29.81R
IMPERIAL       CLEAR     71  41  33 W24G31    29.78R
BLYTHE         CLEAR     80  37  21 SW17      29.74R
$$

NVZ020-UTZ003-220300-
SOUTHERN NEVADA-UTAH

CITY           SKY/WX    TMP DP  RH WIND       PRES   REMARKS
LAS VEGAS      NOT AVBL
SALT LAKE CITY CLOUDY    60  47  61 N8        29.88S
$$

NMZ009-TXZ055-220300-
NEW MEXICO-WEST TEXAS

CITY           SKY/WX    TMP DP  RH WIND       PRES   REMARKS
ALBUQUERQUE    CLOUDY    52  44  74 E30G38    30.03S
EL PASO        TSTM      67  55  65 E10       29.96R
$$


........................KEY........................
SKY/WX - SKY CONDITION/WEATHER
TMP    - TEMPERATURE IN FAHRENHEIT
DP     - DEW POINT IN FAHRENHEIT
RH     - RELATIVE HUMIDITY IN PERCENT
WIND   - DIRECTION AND SPEED IN MILES PER HOUR (MPH)
VRB    - VARIABLE WIND DIRECTION
PRES   - MEAN SEA LEVEL PRESSURE IN INCHES OF MERCURY
         F - FALLING PRESSURE   R - RISING PRESSURE
         S - STEADY PRESSURE
VSB    - VISIBILITY IN MILES
HX     - HEAT INDEX IN FAHRENHEIT
WCI    - WIND CHILL INDEX IN FAHRENHEIT
TC     - TEMPERATURE IN CELSIUS WHICH IS ALSO KNOWN AS
         TEMPERATURE IN CENTIGRADE
AFB    - AIR FORCE BASE
         LUKE AFB IS LUKE AIR FORCE BASE
         DAVIS-MONTHAN IS DAVIS-MONTHAN AIR FORCE BASE
NAS    - NAVAL AIR STATION
         EL CENTRO NAS IS EL CENTRO NAVAL AIR STATION
N/A    - NOT AVAILABLE




USA.gov is the U.S. government's official web portal to all federal, state and local government web resources and services.